User: anonymous   Login
Location: Aufkirchen
(47.9603°N, 11.3653°E)
Time: 14:11:37
(UTC+01:00)
Language:

FO-29 - Orbit

View from above orbital plane
View from above orbital plane
View from above satellite
View from above satellite

Ground track
Ground track

The orbit data is extracted from the following two-line orbital elements,

1 24278U 96046B   21015.46020471  .00000003  00000-0  38471-4 0  9991
2 24278  98.5848 103.6040 0350347 185.7869 173.9173 13.53101792205557
Epoch (UTC): 15 January 2021 11:02:41
Eccentricity: 0.0350347
inclination: 98.5848°
perigee height: 800 km
apogee height: 1321 km
right ascension of ascending node: 103.6040°
argument of perigee: 185.7869°
revolutions per day: 13.53101792
mean anomaly at epoch: 173.9173°
orbit number at epoch: 20555

The dashed part of the orbit path shows where the satellite is in the earth's shadow,  

DLR